Regional Weather Roundup
Issued by NWS

Home | Current Version | Previous Version | Graphics & Text | Print | Product List | Glossary On
Versions: 1 2 3 4 5 6 7 8 9 10 11 12 13 14 15 16 17 18 19 20 21 22 23 24 25 26 27 28 29 30 31 32 33 34 35 36 37 38 39 40 41 42 43 44 45 46 47 48 49 50
000
ASUS43 KFSD 231510
RWRSD

WEATHER ROUNDUP FOR SOUTH DAKOTA
NATIONAL WEATHER SERVICE SIOUX FALLS SD
1000 AM CDT SAT JUL 23 2016

NOTE: "FAIR" INDICATES FEW OR NO CLOUDS BELOW 12,000 FEET WITH NO
SIGNIFICANT WEATHER AND/OR OBSTRUCTIONS TO VISIBILITY.


SDZ001>005-009-010-012>017-231600-
NORTHWEST AND NORTH CENTRAL SOUTH DAKOTA

CITY           SKY/WX    TMP DP  RH WIND       PRES   REMARKS
BUFFALO          N/A     76  58  53 NW26G36   29.83R
FAITH            N/A     78  66  66 W14       29.80R
MOBRIDGE       CLOUDY    79  74  84 S13       29.72R
$$

SDZ012>016-024>037-041>051-057-063-072>074-231600-
SOUTHWEST AND SOUTH CENTRAL SOUTH DAKOTA

CITY           SKY/WX    TMP DP  RH WIND       PRES   REMARKS
RAPID CTY ARPT SUNNY     83  56  39 N26G35    29.86S
PIERRE         SUNNY     83  73  72 SE9       29.74F
CUSTER         SUNNY     83  39  21 VRB6      30.02R
ELLSWORTH AFB  SUNNY     83  55  38 NW37G44   29.85S
PHILIP         SUNNY     84  64  50 W10       29.78S
PINE RIDGE     SUNNY     81  60  48 W13       29.89R
WINNER         FAIR      85  64  49 S9        29.80F
$$

SDZ004>011-016>023-039-040-231600-
NORTHEAST SOUTH DAKOTA

CITY           SKY/WX    TMP DP  RH WIND       PRES   REMARKS
ABERDEEN       CLOUDY    74  69  85 S14       29.73R
WATERTOWN      CLOUDY    72  68  87 SE12      29.75F
BROOKINGS      CLOUDY    70  69  97 E12       29.77F
SISSETON         N/A     71  68  90 S10       29.74F
$$

SDZ017-020-022-023-036>040-048>070-231600-
SOUTHEAST SOUTH DAKOTA

CITY           SKY/WX    TMP DP  RH WIND       PRES   REMARKS
SIOUX FALLS    CLOUDY    75  71  87 SE12      29.82F
HURON          CLOUDY    75  71  87 S9        29.74F
CHAMBERLAIN    MOSUNNY   83  73  72 SE10      29.78F
MITCHELL       MOSUNNY   77  72  84 S17       29.82R
YANKTON        CLOUDY    79  70  73 S12       29.81F
$$

ABBREVIATIONS USED IN REMARKS
   TC - TEMPERATURE IN CELSIUS
  WCI - WIND CHILL INDEX
   HX - HEAT INDEX
  VSB - VISIBILITY




USA.gov is the U.S. government's official web portal to all federal, state and local government web resources and services.